Location: Arthez
(43.0833°N, 0.2500°W)
Time: 07:15:53
(UTC+00:00)

SKYMED 2 - Pass Details

Date: 23 October 2021
Orbit: 621 x 623 km, 97.9° (Epoch: 02 December)

Event Time Altitude Azimuth Distance (km) Brightness Sun altitude
Rises 18:21:08 0° 10° (N) 2,914 6.9 -14.5°
Reaches altitude 10° 18:23:20 10° 8° (N) 2,002 6.1 -14.9°
Maximum altitude 18:27:40 69° 286° (WNW) 670 3.9 -15.6°
Drops below altitude 10° 18:31:58 10° 203° (SSW) 1,986 6.5 -16.4°
Sets 18:34:09 0° 201° (SSW) 2,887 7.3 -16.8°
